Location: Acequia del Cap
(41.7000°N, 0.6167°E)
Time: 17:04:21
(UTC+00:00)

SL-08 ROCKET BODY - Pass Details

Date: 07 August 2020
Orbit: 896 x 964 km, 82.9° (Epoch: 22 September)

Event Time Altitude Azimuth Distance (km) Brightness Sun altitude
Rises 04:16:25 0° 350° (N) 3,630 7.8 -7.8°
Reaches altitude 10° 04:18:56 10° 349° (NNW) 2,672 7.1 -7.4°
Maximum altitude 04:25:00 73° 266° (W) 976 4.4 -6.4°
Drops below altitude 10° 04:30:55 10° 183° (S) 2,607 6.5 -5.4°
Sets 04:33:22 0° 181° (S) 3,535 7.1 -5.0°
